Location: Brachbach
(49.1847°N, 9.7240°E)
Time: 06:17:17
(UTC+00:00)

Cosmos 1025 Rocket - Pass Details

Date: 13 August 2024
Orbit: 590 x 612 km, 82.5° (Epoch: 07 September)

Event Time Altitude Azimuth Distance (km) Brightness Sun altitude
Rises 03:03:38 0° 352° (N) 2,891 6.9 -10.3°
Reaches altitude 10° 03:05:54 10° 356° (N) 1,983 6.1 -10.0°
Maximum altitude 03:10:15 62° 78° (ENE) 695 3.6 -9.4°
Drops below altitude 10° 03:14:34 10° 159° (SSE) 1,967 5.5 -8.8°
Sets 03:16:48 0° 163° (SSE) 2,866 6.3 -8.5°
